Powrót do katalogu

STARLINK-5737

AktywnyŁącznośćVLEO
NORAD 55570·PAYLOAD·🇺🇸 United States

Wystrzelony Feb 12, 2023 z Cape Canaveral Space Force Station

Loading…

Następne Przeloty (najbliższe 24 godziny)

TLE

ŚwieżeSource: CelesTrak SupGP

Epoka: Sep 15, 2026, 02:20 UTC

1 55570C 23020B   26258.09770833 -.00020668  00000+0 -74858-3 0  2585
2 55570  43.0048  15.6092 0002187 272.5074 293.0640 15.27588103    16

Śledź STARLINK-5737 w czasie rzeczywistym z AllMySat

Download on the App Store